| time (UTC) | temp F | wind direction | speed MPH | gust MPH | rain 1hr in | rain 24hr in | rain mn in | humidity % | barometer mb |
| 20260831041502 | 65 | 313 | 0.0 | 0.0 | 0.00 | 0.01 | 0.01 | 63 | 1006.8 |
| 20260831040001 | 66 | 313 | 0.0 | 0.0 | 0.00 | 0.01 | 0.01 | 63 | 1006.8 |
| 20260831034505 | 66 | 313 | 0.0 | 0.0 | 0.00 | 0.01 | 0.01 | 62 | 1006.7 |
| 20260831033003 | 66 | 314 | 0.0 | 0.0 | 0.00 | 0.01 | 0.01 | 61 | 1006.6 |
| 20260831031501 | 67 | 323 | 0.0 | 0.0 | 0.00 | 0.01 | 0.01 | 60 | 1006.4 |
| 20260831030110 | 67 | 327 | 0.0 | 0.0 | 0.00 | 0.01 | 0.01 | 59 | 1006.3 |
| 20260831024611 | 69 | 350 | 0.0 | 0.0 | 0.00 | 0.01 | 0.01 | 59 | 1006.2 |
| 20260831023038 | 70 | 350 | 0.0 | 0.0 | 0.00 | 0.01 | 0.01 | 57 | 1006.1 |
| 20260831021531 | 71 | 350 | 0.0 | 0.0 | 0.00 | 0.01 | 0.01 | 54 | 1005.9 |
| 20260831020023 | 72 | 350 | 0.0 | 0.0 | 0.00 | 0.01 | 0.01 | 50 | 1005.7 |
| 20260831014528 | 73 | 350 | 0.0 | 0.0 | 0.00 | 0.01 | 0.01 | 49 | 1005.8 |
| 20260831013006 | 74 | 350 | 0.0 | 0.0 | 0.00 | 0.01 | 0.01 | 49 | 1005.7 |
| 20260831011604 | 74 | 350 | 0.0 | 0.0 | 0.00 | 0.01 | 0.01 | 48 | 1005.9 |
| 20260831010049 | 74 | 321 | 0.0 | 1.0 | 0.00 | 0.01 | 0.01 | 48 | 1005.9 |
| 20260831004550 | 74 | 360 | 0.0 | 2.0 | 0.00 | 0.02 | 0.01 | 49 | 1005.9 |
| 20260831003014 | 75 | 360 | 0.0 | 1.0 | 0.00 | 0.02 | 0.01 | 48 | 1006.0 |
| 20260831001506 | 75 | 355 | 1.0 | 9.0 | 0.00 | 0.02 | 0.01 | 47 | 1006.0 |
| 20260831000105 | 76 | 355 | 1.0 | 11.0 | 0.00 | 0.02 | 0.01 | 47 | 1005.9 |
| 20260830234605 | 77 | 360 | 0.0 | 14.0 | 0.00 | 0.02 | 0.01 | 47 | 1006.0 |
| 20260830233058 | 78 | 342 | 0.0 | 10.0 | 0.00 | 0.02 | 0.01 | 46 | 1006.1 |
| 20260830231519 | 80 | 17 | 1.0 | 8.0 | 0.00 | 0.02 | 0.01 | 43 | 1006.2 |
| 20260830230020 | 80 | 355 | 1.0 | 12.0 | 0.00 | 0.02 | 0.01 | 44 | 1006.3 |
| 20260830224508 | 80 | 22 | 0.0 | 10.0 | 0.00 | 0.02 | 0.01 | 44 | 1006.5 |
| 20260830223101 | 80 | 333 | 2.0 | 10.0 | 0.00 | 0.02 | 0.01 | 42 | 1006.5 |
| 20260830221558 | 82 | 11 | 1.0 | 11.0 | 0.00 | 0.02 | 0.01 | 40 | 1006.5 |
| 20260830220049 | 82 | 348 | 0.0 | 10.0 | 0.00 | 0.02 | 0.01 | 38 | 1006.7 |
| 20260830214550 | 82 | 345 | 0.0 | 15.0 | 0.00 | 0.03 | 0.01 | 41 | 1006.7 |
| 20260830213040 | 83 | 347 | 0.0 | 10.0 | 0.00 | 0.03 | 0.01 | 40 | 1006.8 |
| 20260830211533 | 82 | 242 | 0.0 | 9.0 | 0.00 | 0.03 | 0.01 | 40 | 1006.9 |
| 20260830210034 | 80 | 297 | 0.0 | 10.0 | 0.00 | 0.03 | 0.01 | 42 | 1007.2 |
| 20260830204526 | 78 | 355 | 2.0 | 9.0 | 0.00 | 0.03 | 0.01 | 46 | 1007.1 |
| 20260830203029 | 76 | 32 | 0.0 | 0.0 | 0.00 | 0.03 | 0.01 | 51 | 1007.3 |
| 20260830201508 | 75 | 327 | 0.0 | 11.0 | 0.00 | 0.03 | 0.01 | 49 | 1007.3 |
| 20260830200100 | 77 | 11 | 0.0 | 1.0 | 0.00 | 0.03 | 0.01 | 47 | 1007.1 |
| 20260830194551 | 80 | 61 | 0.0 | 0.0 | 0.00 | 0.04 | 0.01 | 44 | 1007.5 |
| 20260830193051 | 83 | 153 | 1.0 | 10.0 | 0.00 | 0.04 | 0.01 | 44 | 1007.5 |
| 20260830191539 | 82 | 180 | 4.0 | 12.0 | 0.00 | 0.04 | 0.01 | 47 | 1007.5 |
| 20260830190034 | 81 | 150 | 2.0 | 16.0 | 0.00 | 0.04 | 0.01 | 47 | 1007.8 |
| 20260830184525 | 80 | 182 | 4.0 | 11.0 | 0.00 | 0.04 | 0.01 | 48 | 1008.0 |
| 20260830183014 | 80 | 173 | 0.0 | 11.0 | 0.00 | 0.04 | 0.01 | 50 | 1008.1 |
| 20260830181503 | 79 | 105 | 0.0 | 11.0 | 0.00 | 0.04 | 0.01 | 52 | 1008.3 |
| 20260830180052 | 78 | 190 | 6.0 | 13.0 | 0.00 | 0.04 | 0.01 | 50 | 1008.2 |
| 20260830174551 | 77 | 147 | 1.0 | 11.0 | 0.00 | 0.05 | 0.01 | 52 | 1008.2 |
| 20260830173045 | 76 | 140 | 0.0 | 8.0 | 0.00 | 0.05 | 0.01 | 56 | 1008.2 |
| 20260830171524 | 74 | 167 | 0.0 | 14.0 | 0.00 | 0.05 | 0.01 | 60 | 1008.2 |
| 20260830170013 | 72 | 136 | 2.0 | 15.0 | 0.00 | 0.05 | 0.01 | 62 | 1008.2 |
| 20260830164619 | 70 | 163 | 3.0 | 12.0 | 0.00 | 0.05 | 0.01 | 64 | 1008.2 |
| 20260830163104 | 69 | 153 | 5.0 | 15.0 | 0.00 | 0.05 | 0.01 | 65 | 1008.1 |
| 20260830161543 | 68 | 162 | 5.0 | 11.0 | 0.00 | 0.05 | 0.01 | 68 | 1008.1 |
| 20260830160033 | 67 | 170 | 7.0 | 15.0 | 0.00 | 0.05 | 0.01 | 69 | 1007.9 |
| 20260830154524 | 66 | 157 | 5.0 | 15.0 | 0.00 | 0.06 | 0.01 | 72 | 1007.8 |
| 20260830153018 | 64 | 146 | 6.0 | 12.0 | 0.00 | 0.06 | 0.01 | 75 | 1007.9 |
| 20260830151511 | 63 | 154 | 0.0 | 6.0 | 0.00 | 0.06 | 0.01 | 79 | 1007.8 |
| 20260830150005 | 62 | 160 | 6.0 | 11.0 | 0.00 | 0.06 | 0.01 | 82 | 1007.8 |
| 20260830144602 | 60 | 182 | 0.0 | 9.0 | 0.00 | 0.07 | 0.01 | 86 | 1007.9 |
| 20260830143044 | 60 | 196 | 0.0 | 7.0 | 0.00 | 0.07 | 0.01 | 87 | 1007.9 |
| 20260830141531 | 58 | 202 | 0.0 | 1.0 | 0.00 | 0.07 | 0.01 | 87 | 1008.1 |
| 20260830140020 | 58 | 224 | 3.0 | 9.0 | 0.00 | 0.07 | 0.01 | 87 | 1007.9 |
| 20260830134514 | 58 | 222 | 0.0 | 0.0 | 0.00 | 0.07 | 0.01 | 87 | 1008.1 |
| 20260830133001 | 58 | 177 | 0.0 | 1.0 | 0.00 | 0.07 | 0.01 | 86 | 1007.7 |
| 20260830131615 | 59 | 185 | 0.0 | 7.0 | 0.01 | 0.07 | 0.01 | 86 | 1007.7 |
| 20260830130050 | 59 | 174 | 0.0 | 0.0 | 0.01 | 0.07 | 0.01 | 86 | 1007.3 |
| 20260830124602 | 59 | 184 | 0.0 | 0.0 | 0.01 | 0.07 | 0.01 | 85 | 1007.3 |
| 20260830123039 | 59 | 155 | 0.0 | 1.0 | 0.01 | 0.07 | 0.01 | 84 | 1007.3 |
| 20260830121523 | 60 | 112 | 0.0 | 0.0 | 0.00 | 0.06 | 0.00 | 83 | 1007.1 |
| 20260830120014 | 60 | 171 | 0.0 | 0.0 | 0.00 | 0.06 | 0.00 | 81 | 1006.8 |
| 20260830114506 | 60 | 154 | 0.0 | 6.0 | 0.00 | 0.06 | 0.00 | 80 | 1007.0 |
| 20260830113105 | 61 | 121 | 0.0 | 0.0 | 0.00 | 0.06 | 0.00 | 80 | 1006.7 |
| 20260830111558 | 61 | 238 | 1.0 | 11.0 | 0.00 | 0.06 | 0.00 | 79 | 1007.5 |
| 20260830110050 | 60 | 167 | 6.0 | 11.0 | 0.00 | 0.06 | 0.00 | 79 | 1006.3 |
| 20260830104539 | 60 | 194 | 0.0 | 0.0 | 0.00 | 0.08 | 0.00 | 79 | 1006.7 |
| 20260830103036 | 60 | 180 | 0.0 | 0.0 | 0.00 | 0.08 | 0.00 | 79 | 1006.6 |
| 20260830101528 | 60 | 188 | 3.0 | 10.0 | 0.00 | 0.08 | 0.00 | 79 | 1006.7 |
| 20260830100027 | 60 | 204 | 0.0 | 2.0 | 0.00 | 0.08 | 0.00 | 78 | 1006.5 |
| 20260830094517 | 61 | 184 | 0.0 | 0.0 | 0.00 | 0.09 | 0.00 | 78 | 1006.4 |
| 20260830093016 | 61 | 227 | 0.0 | 0.0 | 0.00 | 0.09 | 0.00 | 79 | 1006.7 |
| 20260830091514 | 62 | 225 | 0.0 | 9.0 | 0.00 | 0.09 | 0.00 | 79 | 1006.8 |
| 20260830090014 | 62 | 168 | 1.0 | 10.0 | 0.00 | 0.09 | 0.00 | 79 | 1006.9 |
| 20260830084605 | 62 | 149 | 8.0 | 16.0 | 0.00 | 0.09 | 0.00 | 78 | 1006.5 |
| 20260830083103 | 62 | 190 | 8.0 | 16.0 | 0.00 | 0.09 | 0.00 | 78 | 1007.0 |
| 20260830081542 | 62 | 132 | 0.0 | 8.0 | 0.00 | 0.09 | 0.00 | 79 | 1006.3 |
| 20260830080009 | 63 | 165 | 1.0 | 12.0 | 0.00 | 0.09 | 0.00 | 79 | 1006.5 |
| 20260830074508 | 63 | 119 | 0.0 | 0.0 | 0.00 | 0.09 | 0.00 | 77 | 1005.9 |
| 20260830073008 | 63 | 158 | 0.0 | 0.0 | 0.00 | 0.09 | 0.00 | 77 | 1006.8 |
| 20260830071601 | 63 | 188 | 0.0 | 12.0 | 0.00 | 0.09 | 0.00 | 77 | 1006.4 |
| 20260830064538 | 63 | 263 | 12.0 | 20.0 | 0.00 | 0.09 | 0.00 | 77 | 1006.2 |
| 20260830063036 | 63 | 177 | 8.0 | 16.0 | 0.00 | 0.09 | 0.00 | 72 | 1005.8 |
| 20260830061531 | 63 | 184 | 9.0 | 21.0 | 0.00 | 0.09 | 0.00 | 70 | 1005.6 |
| 20260830060016 | 63 | 178 | 9.0 | 20.0 | 0.00 | 0.09 | 0.00 | 68 | 1006.0 |
| 20260830054512 | 63 | 186 | 7.0 | 17.0 | 0.00 | 0.09 | 0.09 | 69 | 1006.0 |
| 20260830053059 | 63 | 164 | 6.0 | 20.0 | 0.00 | 0.09 | 0.09 | 67 | 1005.9 |
| 20260830051555 | 64 | 153 | 9.0 | 24.0 | 0.00 | 0.09 | 0.09 | 63 | 1004.4 |
| 20260830050045 | 65 | 185 | 13.0 | 40.0 | 0.00 | 0.09 | 0.09 | 60 | 1005.6 |
| 20260830044536 | 64 | 175 | 12.0 | 26.0 | 0.00 | 0.09 | 0.09 | 66 | 1006.0 |
| 20260830043034 | 65 | 105 | 1.0 | 9.0 | 0.00 | 0.09 | 0.09 | 68 | 1006.2 |